THOR ABLESTAR DEB, 329

Orbit data source: Space-Track

THOR ABLESTAR DEB, 329 is space debris in LEO originally from a launch on Thu, 29 Jun 1961 UTC launched from the Air Force Eastern Test Range (AFETR). Debris objects in space refer to the collection of defunct objects orbiting the Earth. Examples of debris include non-operational satellites, rocket bodies, and fragments generated from explosions, collisions, or faulty payload assembly.

Loading next visibility...
THOR ABLESTAR DEB details
Identifier
329, 1961-015DF
Orbit
LEO
Last TLE update6 hours ago
Origin
Flag of USUSAF SSD (US)
ManufacturerUnknown
MissionSpacecraft
Bus & MotorUnknown
MassUnknown
Launch date (UTC)
1961-06-29 (64 years ago)
Launch vehicleUnknown
Launch site
Air Force Eastern Test Range (AFETR)
Object type
Payload
Rocket body
Debris
Shape & HBRUnknown
Radar Cross SectionSmall (<0.1 m²)

Expand to show TLE details & history

TLE from 6 hours ago
0 THOR ABLESTAR DEB
1   329U 61015DF  25047.80197558  .00000275  00000-0  40235-3 0  9999
2   329  66.7796  72.0129 0120162 316.2189 217.9379 13.65922914164180
Epoch: 2025-02-16T19:14Z
Definitive object data (Epoch: 2025-02-16T19:14:50.69Z)
Latitude6.07465°
Longitude173.66841°
Altitude1,086.174 km
Speed7.275 km/s
True Right ascension16h 37m 38s
True Declination6° 02' 25"
Sunlit
Object was in daylight at TLE epoch
Visualization TLE readout
Latitude-5.86869°
Longitude-6.84208°
Altitude946.567 km
Speed7.414 km/s
Apparent Right ascension05h 22m 24s
Apparent Declination-62° 53' 45"
Sunlit
Object is in daylight
Visualization observer readout
Local Sidereal Time04:12:10
Azimuth171.865° S
Elevation-13.77°
Doppler factor1
Orbital elements
Apogee altitude1,101.469 km
Perigee altitude923.85 km
Semi-major axis7,390.796 km
Eccentricity0.0120162
Inclination66.7796°
RAAN72.0129°
Arg. of periapsis316.2189°
True anomaly217.10128°
Mean anomaly217.9379°
Eccentric anomaly217.5186°
Mean motion3.41591 °/min
BSTAR0.00040235
Orbital period105.39 mins
Loading maneuver chart data...

THOR ABLESTAR DEB Visibility forecast

Observer location: undefined°, undefined

Span
Click to sort rows by Start time (UTC) header in descending order
Start Az.
Max El. time (UTC)
Max El. Az.
Max El.
End time (UTC)
End Az.
6 mins2025-02-17 01:33:30.824Z127.895° SE2025-02-17 01:36:30.824Z98.054° ESE14.364°2025-02-17 01:39:30.824Z70.037° E
11 mins2025-02-17 03:18:30.824Z209.983° SW2025-02-17 03:23:30.824Z255.993° W44.826°2025-02-17 03:29:30.824Z27.922° NE
7 mins2025-02-17 05:10:30.824Z291.454° WNW2025-02-17 05:13:30.824Z324.272° NNW18.014°2025-02-17 05:17:30.824Z2.174° NNE
9 mins2025-02-17 10:45:30.824Z4.65° NNE2025-02-17 10:49:30.824Z49.566° ENE22.434°2025-02-17 10:54:30.824Z96.083° ESE
12 mins2025-02-17 12:32:30.824Z327.249° NNW2025-02-17 12:38:30.824Z220.989° SW44.161°2025-02-17 12:44:30.824Z159.894° S
|